Location: Barcelona
(41.3830°N, 2.1830°E)
Time: 07:54:53
(UTC+02:00)

ISS - Pass Details

Date: 17 October 2017
Orbit: 400 x 408 km, 51.6° (Epoch: 24 October)

Event Time Altitude Azimuth Distance (km) Brightness Sun altitude
Rises 19:49:14 0° 296° (WNW) 2,323 1.1 -8.6°
Reaches altitude 10° 19:51:31 10° 283° (WNW) 1,461 0.4 -9.1°
Maximum altitude 19:54:17 26° 225° (SW) 845 -1.6 -9.6°
Drops below altitude 10° 19:57:04 10° 167° (SSE) 1,456 -1.1 -10.1°
Sets 19:59:20 0° 154° (SSE) 2,313 -0.2 -10.5°
